iso_date,Year,Hour,Min,DOY,POS_DOY,Lat,Lon,BP,Ts,Ta,has_bp,has_ts,has_ta,BuoyID,Buoy_Type,Buoy_Owner,Logistics,Hemisphere
2022-07-31T20:00:14Z,2022,20,0,212.8335,212.8335,88.50187,-36.45315,-999.0,-999.0,-999.0,no,no,no,300534061788840,T_String,AWI,unknown,North
2022-07-31T22:00:11Z,2022,22,0,212.9168,212.9168,88.49401,-36.26326,-999.0,-999.0,-999.0,no,no,no,300534061788840,T_String,AWI,unknown,North
2022-08-01T00:00:17Z,2022,0,0,213.0002,213.0002,88.48402,-36.08089,-999.0,-999.0,-999.0,no,no,no,300534061788840,T_String,AWI,unknown,North
2022-08-01T02:00:14Z,2022,2,0,213.0835,213.0835,88.47394,-35.9403,-999.0,-999.0,-999.0,no,no,no,300534061788840,T_String,AWI,unknown,North
2022-08-01T04:00:11Z,2022,4,0,213.1668,213.1668,88.46541,-35.80838,-999.0,-999.0,-999.0,no,no,no,300534061788840,T_String,AWI,unknown,North
2022-08-01T06:00:17Z,2022,6,0,213.2502,213.2502,88.45909,-35.66377,-999.0,-999.0,-999.0,no,no,no,300534061788840,T_String,AWI,unknown,North
2022-08-01T08:00:14Z,2022,8,0,213.3335,213.3335,88.4542,-35.48532,-999.0,-999.0,-999.0,no,no,no,300534061788840,T_String,AWI,unknown,North
2022-08-01T10:00:11Z,2022,10,0,213.4168,213.4168,88.44939,-35.25148,-999.0,-999.0,-999.0,no,no,no,300534061788840,T_String,AWI,unknown,North
2022-08-01T12:00:17Z,2022,12,0,213.5002,213.5002,88.44348,-34.99671,-999.0,-999.0,-999.0,no,no,no,300534061788840,T_String,AWI,unknown,North
2022-08-01T14:00:14Z,2022,14,0,213.5835,213.5835,88.4366,-34.76134,-999.0,-999.0,-999.0,no,no,no,300534061788840,T_String,AWI,unknown,North
2022-08-01T16:00:11Z,2022,16,0,213.6668,213.6668,88.43026,-34.57221,-999.0,-999.0,-999.0,no,no,no,300534061788840,T_String,AWI,unknown,North
2022-08-01T18:00:17Z,2022,18,0,213.7502,213.7502,88.42556,-34.39742,-999.0,-999.0,-999.0,no,no,no,300534061788840,T_String,AWI,unknown,North
2022-08-01T20:00:14Z,2022,20,0,213.8335,213.8335,88.4219,-34.1993,-999.0,-999.0,-999.0,no,no,no,300534061788840,T_String,AWI,unknown,North
2022-08-01T22:00:11Z,2022,22,0,213.9168,213.9168,88.41778,-33.97258,-999.0,-999.0,-999.0,no,no,no,300534061788840,T_String,AWI,unknown,North
2022-08-02T00:00:17Z,2022,0,0,214.0002,214.0002,88.41279,-33.73898,-999.0,-999.0,-999.0,no,no,no,300534061788840,T_String,AWI,unknown,North
2022-08-02T02:00:14Z,2022,2,0,214.0835,214.0835,88.40709,-33.53379,-999.0,-999.0,-999.0,no,no,no,300534061788840,T_String,AWI,unknown,North
2022-08-02T04:00:11Z,2022,4,0,214.1668,214.1668,88.40199,-33.3734,-999.0,-999.0,-999.0,no,no,no,300534061788840,T_String,AWI,unknown,North
2022-08-02T06:00:17Z,2022,6,0,214.2502,214.2502,88.39767,-33.23063,-999.0,-999.0,-999.0,no,no,no,300534061788840,T_String,AWI,unknown,North
2022-08-02T08:00:14Z,2022,8,0,214.3335,214.3335,88.39433,-33.09068,-999.0,-999.0,-999.0,no,no,no,300534061788840,T_String,AWI,unknown,North
2022-08-02T10:00:11Z,2022,10,0,214.4168,214.4168,88.39127,-32.91816,-999.0,-999.0,-999.0,no,no,no,300534061788840,T_String,AWI,unknown,North
2022-08-02T12:00:17Z,2022,12,0,214.5002,214.5002,88.3873,-32.71093,-999.0,-999.0,-999.0,no,no,no,300534061788840,T_String,AWI,unknown,North
2022-08-02T14:00:14Z,2022,14,0,214.5835,214.5835,88.38231,-32.51534,-999.0,-999.0,-999.0,no,no,no,300534061788840,T_String,AWI,unknown,North
2022-08-02T16:00:11Z,2022,16,0,214.6668,214.6668,88.37802,-32.3492,-999.0,-999.0,-999.0,no,no,no,300534061788840,T_String,AWI,unknown,North
2022-08-02T18:00:17Z,2022,18,0,214.7502,214.7502,88.37511,-32.19053,-999.0,-999.0,-999.0,no,no,no,300534061788840,T_String,AWI,unknown,North
2022-08-02T20:00:14Z,2022,20,0,214.8335,214.8335,88.37319,-31.99625,-999.0,-999.0,-999.0,no,no,no,300534061788840,T_String,AWI,unknown,North
2022-08-02T22:00:11Z,2022,22,0,214.9168,214.9168,88.37122,-31.76827,-999.0,-999.0,-999.0,no,no,no,300534061788840,T_String,AWI,unknown,North
2022-08-03T00:00:17Z,2022,0,0,215.0002,215.0002,88.36831,-31.51944,-999.0,-999.0,-999.0,no,no,no,300534061788840,T_String,AWI,unknown,North
2022-08-03T02:00:14Z,2022,2,0,215.0835,215.0835,88.36508,-31.28836,-999.0,-999.0,-999.0,no,no,no,300534061788840,T_String,AWI,unknown,North
2022-08-03T04:00:11Z,2022,4,0,215.1668,215.1668,88.36213,-31.06287,-999.0,-999.0,-999.0,no,no,no,300534061788840,T_String,AWI,unknown,North
2022-08-03T06:00:17Z,2022,6,0,215.2502,215.2502,88.35905,-30.83271,-999.0,-999.0,-999.0,no,no,no,300534061788840,T_String,AWI,unknown,North
2022-08-03T08:00:14Z,2022,8,0,215.3335,215.3335,88.35659,-30.57818,-999.0,-999.0,-999.0,no,no,no,300534061788840,T_String,AWI,unknown,North
2022-08-03T10:00:11Z,2022,10,0,215.4168,215.4168,88.35392,-30.31758,-999.0,-999.0,-999.0,no,no,no,300534061788840,T_String,AWI,unknown,North
2022-08-03T12:00:17Z,2022,12,0,215.5002,215.5002,88.35103,-30.07097,-999.0,-999.0,-999.0,no,no,no,300534061788840,T_String,AWI,unknown,North
2022-08-03T14:00:14Z,2022,14,0,215.5835,215.5835,88.34815,-29.84792,-999.0,-999.0,-999.0,no,no,no,300534061788840,T_String,AWI,unknown,North
2022-08-03T16:00:11Z,2022,16,0,215.6668,215.6668,88.34575,-29.66348,-999.0,-999.0,-999.0,no,no,no,300534061788840,T_String,AWI,unknown,North
2022-08-03T18:00:17Z,2022,18,0,215.7502,215.7502,88.34386,-29.43536,-999.0,-999.0,-999.0,no,no,no,300534061788840,T_String,AWI,unknown,North
2022-08-03T20:00:14Z,2022,20,0,215.8335,215.8335,88.34239,-29.13224,-999.0,-999.0,-999.0,no,no,no,300534061788840,T_String,AWI,unknown,North
2022-08-03T22:00:11Z,2022,22,0,215.9168,215.9168,88.33936,-28.83296,-999.0,-999.0,-999.0,no,no,no,300534061788840,T_String,AWI,unknown,North
2022-08-04T00:00:17Z,2022,0,0,216.0002,216.0002,88.33464,-28.64643,-999.0,-999.0,-999.0,no,no,no,300534061788840,T_String,AWI,unknown,North
2022-08-04T02:00:14Z,2022,2,0,216.0835,216.0835,88.33032,-28.44401,-999.0,-999.0,-999.0,no,no,no,300534061788840,T_String,AWI,unknown,North
2022-08-04T04:00:11Z,2022,4,0,216.1668,216.1668,88.32617,-28.26884,-999.0,-999.0,-999.0,no,no,no,300534061788840,T_String,AWI,unknown,North
2022-08-04T06:00:17Z,2022,6,0,216.2502,216.2502,88.3229,-28.11457,-999.0,-999.0,-999.0,no,no,no,300534061788840,T_String,AWI,unknown,North
2022-08-04T08:00:14Z,2022,8,0,216.3335,216.3335,88.32011,-27.96029,-999.0,-999.0,-999.0,no,no,no,300534061788840,T_String,AWI,unknown,North
2022-08-04T10:00:11Z,2022,10,0,216.4168,216.4168,88.31693,-27.80449,-999.0,-999.0,-999.0,no,no,no,300534061788840,T_String,AWI,unknown,North
2022-08-04T12:00:17Z,2022,12,0,216.5002,216.5002,88.31242,-27.64989,-999.0,-999.0,-999.0,no,no,no,300534061788840,T_String,AWI,unknown,North
2022-08-04T14:00:14Z,2022,14,0,216.5835,216.5835,88.30808,-27.54012,-999.0,-999.0,-999.0,no,no,no,300534061788840,T_String,AWI,unknown,North
2022-08-04T16:00:11Z,2022,16,0,216.6668,216.6668,88.30507,-27.4354,-999.0,-999.0,-999.0,no,no,no,300534061788840,T_String,AWI,unknown,North
2022-08-04T18:00:17Z,2022,18,0,216.7502,216.7502,88.30315,-27.3257,-999.0,-999.0,-999.0,no,no,no,300534061788840,T_String,AWI,unknown,North
2022-08-04T20:00:14Z,2022,20,0,216.8335,216.8335,88.30197,-27.21885,-999.0,-999.0,-999.0,no,no,no,300534061788840,T_String,AWI,unknown,North
2022-08-04T22:00:11Z,2022,22,0,216.9168,216.9168,88.30086,-27.09527,-999.0,-999.0,-999.0,no,no,no,300534061788840,T_String,AWI,unknown,North
2022-08-05T00:00:17Z,2022,0,0,217.0002,217.0002,88.29878,-26.98079,-999.0,-999.0,-999.0,no,no,no,300534061788840,T_String,AWI,unknown,North
2022-08-05T02:00:14Z,2022,2,0,217.0835,217.0835,88.29623,-26.86546,-999.0,-999.0,-999.0,no,no,no,300534061788840,T_String,AWI,unknown,North
2022-08-05T04:00:11Z,2022,4,0,217.1668,217.1668,88.29394,-26.75701,-999.0,-999.0,-999.0,no,no,no,300534061788840,T_String,AWI,unknown,North
2022-08-05T06:00:17Z,2022,6,0,217.2502,217.2502,88.29243,-26.65076,-999.0,-999.0,-999.0,no,no,no,300534061788840,T_String,AWI,unknown,North
2022-08-05T08:00:14Z,2022,8,0,217.3335,217.3335,88.2913,-26.53001,-999.0,-999.0,-999.0,no,no,no,300534061788840,T_String,AWI,unknown,North
2022-08-05T10:00:11Z,2022,10,0,217.4168,217.4168,88.29053,-26.38237,-999.0,-999.0,-999.0,no,no,no,300534061788840,T_String,AWI,unknown,North
2022-08-05T12:00:17Z,2022,12,0,217.5002,217.5002,88.28915,-26.21318,-999.0,-999.0,-999.0,no,no,no,300534061788840,T_String,AWI,unknown,North
2022-08-05T14:00:14Z,2022,14,0,217.5835,217.5835,88.28669,-26.08028,-999.0,-999.0,-999.0,no,no,no,300534061788840,T_String,AWI,unknown,North
2022-08-05T16:00:11Z,2022,16,0,217.6668,217.6668,88.28516,-25.98705,-999.0,-999.0,-999.0,no,no,no,300534061788840,T_String,AWI,unknown,North
2022-08-05T18:00:17Z,2022,18,0,217.7502,217.7502,88.28601,-25.83748,-999.0,-999.0,-999.0,no,no,no,300534061788840,T_String,AWI,unknown,North
2022-08-05T20:00:14Z,2022,20,0,217.8335,217.8335,88.28591,-25.66821,-999.0,-999.0,-999.0,no,no,no,300534061788840,T_String,AWI,unknown,North
2022-08-05T22:00:11Z,2022,22,0,217.9168,217.9168,88.28422,-25.52164,-999.0,-999.0,-999.0,no,no,no,300534061788840,T_String,AWI,unknown,North
2022-08-06T00:00:17Z,2022,0,0,218.0002,218.0002,88.2816,-25.39103,-999.0,-999.0,-999.0,no,no,no,300534061788840,T_String,AWI,unknown,North
2022-08-06T02:00:14Z,2022,2,0,218.0835,218.0835,88.27866,-25.28597,-999.0,-999.0,-999.0,no,no,no,300534061788840,T_String,AWI,unknown,North
2022-08-06T04:00:11Z,2022,4,0,218.1668,218.1668,88.27568,-25.18825,-999.0,-999.0,-999.0,no,no,no,300534061788840,T_String,AWI,unknown,North
2022-08-06T06:00:17Z,2022,6,0,218.2502,218.2502,88.27224,-25.0969,-999.0,-999.0,-999.0,no,no,no,300534061788840,T_String,AWI,unknown,North
2022-08-06T08:00:14Z,2022,8,0,218.3335,218.3335,88.2696,-25.0425,-999.0,-999.0,-999.0,no,no,no,300534061788840,T_String,AWI,unknown,North
2022-08-06T10:00:11Z,2022,10,0,218.4168,218.4168,88.26798,-25.00389,-999.0,-999.0,-999.0,no,no,no,300534061788840,T_String,AWI,unknown,North
2022-08-06T12:00:17Z,2022,12,0,218.5002,218.5002,88.26606,-24.96766,-999.0,-999.0,-999.0,no,no,no,300534061788840,T_String,AWI,unknown,North
2022-08-06T14:00:14Z,2022,14,0,218.5835,218.5835,88.26409,-24.92764,-999.0,-999.0,-999.0,no,no,no,300534061788840,T_String,AWI,unknown,North
2022-08-06T16:00:11Z,2022,16,0,218.6668,218.6668,88.26228,-24.90301,-999.0,-999.0,-999.0,no,no,no,300534061788840,T_String,AWI,unknown,North
2022-08-06T18:00:17Z,2022,18,0,218.7502,218.7502,88.2607,-24.87938,-999.0,-999.0,-999.0,no,no,no,300534061788840,T_String,AWI,unknown,North
2022-08-06T20:00:14Z,2022,20,0,218.8335,218.8335,88.25961,-24.86441,-999.0,-999.0,-999.0,no,no,no,300534061788840,T_String,AWI,unknown,North
2022-08-06T22:00:11Z,2022,22,0,218.9168,218.9168,88.25899,-24.8549,-999.0,-999.0,-999.0,no,no,no,300534061788840,T_String,AWI,unknown,North
2022-08-07T00:00:17Z,2022,0,0,219.0002,219.0002,88.25774,-24.862,-999.0,-999.0,-999.0,no,no,no,300534061788840,T_String,AWI,unknown,North
2022-08-07T02:00:14Z,2022,2,0,219.0835,219.0835,88.25616,-24.8964,-999.0,-999.0,-999.0,no,no,no,300534061788840,T_String,AWI,unknown,North
2022-08-07T04:00:11Z,2022,4,0,219.1668,219.1668,88.25513,-24.9314,-999.0,-999.0,-999.0,no,no,no,300534061788840,T_String,AWI,unknown,North
2022-08-07T06:00:17Z,2022,6,0,219.2502,219.2502,88.25373,-24.9588,-999.0,-999.0,-999.0,no,no,no,300534061788840,T_String,AWI,unknown,North
2022-08-07T08:00:14Z,2022,8,0,219.3335,219.3335,88.25235,-24.96166,-999.0,-999.0,-999.0,no,no,no,300534061788840,T_String,AWI,unknown,North
2022-08-07T10:00:11Z,2022,10,0,219.4168,219.4168,88.25076,-25.0027,-999.0,-999.0,-999.0,no,no,no,300534061788840,T_String,AWI,unknown,North
2022-08-07T12:00:17Z,2022,12,0,219.5002,219.5002,88.24943,-25.0669,-999.0,-999.0,-999.0,no,no,no,300534061788840,T_String,AWI,unknown,North
2022-08-07T14:00:14Z,2022,14,0,219.5835,219.5835,88.24864,-25.11495,-999.0,-999.0,-999.0,no,no,no,300534061788840,T_String,AWI,unknown,North
2022-08-07T16:00:11Z,2022,16,0,219.6668,219.6668,88.24736,-25.1405,-999.0,-999.0,-999.0,no,no,no,300534061788840,T_String,AWI,unknown,North
2022-08-07T18:00:17Z,2022,18,0,219.7502,219.7502,88.24514,-25.14258,-999.0,-999.0,-999.0,no,no,no,300534061788840,T_String,AWI,unknown,North
2022-08-07T20:00:14Z,2022,20,0,219.8335,219.8335,88.24207,-25.15415,-999.0,-999.0,-999.0,no,no,no,300534061788840,T_String,AWI,unknown,North
2022-08-07T22:00:11Z,2022,22,0,219.9168,219.9168,88.23927,-25.17916,-999.0,-999.0,-999.0,no,no,no,300534061788840,T_String,AWI,unknown,North
2022-08-08T00:00:17Z,2022,0,0,220.0002,220.0002,88.2368,-25.20108,-999.0,-999.0,-999.0,no,no,no,300534061788840,T_String,AWI,unknown,North
2022-08-08T02:00:14Z,2022,2,0,220.0835,220.0835,88.23426,-25.21691,-999.0,-999.0,-999.0,no,no,no,300534061788840,T_String,AWI,unknown,North
2022-08-08T04:00:11Z,2022,4,0,220.1668,220.1668,88.23139,-25.22478,-999.0,-999.0,-999.0,no,no,no,300534061788840,T_String,AWI,unknown,North
2022-08-08T06:00:17Z,2022,6,0,220.2502,220.2502,88.22867,-25.21378,-999.0,-999.0,-999.0,no,no,no,300534061788840,T_String,AWI,unknown,North
2022-08-08T08:00:14Z,2022,8,0,220.3335,220.3335,88.22591,-25.20446,-999.0,-999.0,-999.0,no,no,no,300534061788840,T_String,AWI,unknown,North
2022-08-08T10:00:11Z,2022,10,0,220.4168,220.4168,88.22347,-25.19644,-999.0,-999.0,-999.0,no,no,no,300534061788840,T_String,AWI,unknown,North
2022-08-08T12:00:17Z,2022,12,0,220.5002,220.5002,88.2216,-25.17756,-999.0,-999.0,-999.0,no,no,no,300534061788840,T_String,AWI,unknown,North
2022-08-08T14:00:14Z,2022,14,0,220.5835,220.5835,88.21945,-25.15095,-999.0,-999.0,-999.0,no,no,no,300534061788840,T_String,AWI,unknown,North
2022-08-08T16:00:11Z,2022,16,0,220.6668,220.6668,88.21692,-25.11891,-999.0,-999.0,-999.0,no,no,no,300534061788840,T_String,AWI,unknown,North
2022-08-08T18:00:17Z,2022,18,0,220.7502,220.7502,88.21361,-25.08141,-999.0,-999.0,-999.0,no,no,no,300534061788840,T_String,AWI,unknown,North
2022-08-08T20:00:14Z,2022,20,0,220.8335,220.8335,88.21022,-25.04548,-999.0,-999.0,-999.0,no,no,no,300534061788840,T_String,AWI,unknown,North
2022-08-08T22:00:11Z,2022,22,0,220.9168,220.9168,88.20687,-25.00183,-999.0,-999.0,-999.0,no,no,no,300534061788840,T_String,AWI,unknown,North
2022-08-09T00:00:17Z,2022,0,0,221.0002,221.0002,88.20297,-24.93634,-999.0,-999.0,-999.0,no,no,no,300534061788840,T_String,AWI,unknown,North
2022-08-09T02:00:14Z,2022,2,0,221.0835,221.0835,88.19822,-24.86985,-999.0,-999.0,-999.0,no,no,no,300534061788840,T_String,AWI,unknown,North
2022-08-09T04:00:11Z,2022,4,0,221.1668,221.1668,88.1928,-24.81322,-999.0,-999.0,-999.0,no,no,no,300534061788840,T_String,AWI,unknown,North
2022-08-09T06:00:17Z,2022,6,0,221.2502,221.2502,88.18673,-24.75646,-999.0,-999.0,-999.0,no,no,no,300534061788840,T_String,AWI,unknown,North
2022-08-09T08:00:14Z,2022,8,0,221.3335,221.3335,88.18112,-24.66848,-999.0,-999.0,-999.0,no,no,no,300534061788840,T_String,AWI,unknown,North
2022-08-09T10:00:11Z,2022,10,0,221.4168,221.4168,88.17538,-24.55923,-999.0,-999.0,-999.0,no,no,no,300534061788840,T_String,AWI,unknown,North
2022-08-09T12:00:17Z,2022,12,0,221.5002,221.5002,88.16879,-24.46427,-999.0,-999.0,-999.0,no,no,no,300534061788840,T_String,AWI,unknown,North
2022-08-09T14:00:14Z,2022,14,0,221.5835,221.5835,88.16263,-24.38418,-999.0,-999.0,-999.0,no,no,no,300534061788840,T_String,AWI,unknown,North
2022-08-09T16:00:11Z,2022,16,0,221.6668,221.6668,88.15678,-24.30744,-999.0,-999.0,-999.0,no,no,no,300534061788840,T_String,AWI,unknown,North
2022-08-09T18:00:17Z,2022,18,0,221.7502,221.7502,88.15181,-24.22928,-999.0,-999.0,-999.0,no,no,no,300534061788840,T_String,AWI,unknown,North
2022-08-09T20:00:14Z,2022,20,0,221.8335,221.8335,88.14746,-24.14281,-999.0,-999.0,-999.0,no,no,no,300534061788840,T_String,AWI,unknown,North
2022-08-09T22:00:11Z,2022,22,0,221.9168,221.9168,88.1432,-24.04501,-999.0,-999.0,-999.0,no,no,no,300534061788840,T_String,AWI,unknown,North
2022-08-10T00:00:17Z,2022,0,0,222.0002,222.0002,88.1386,-23.94367,-999.0,-999.0,-999.0,no,no,no,300534061788840,T_String,AWI,unknown,North
2022-08-10T02:00:14Z,2022,2,0,222.0835,222.0835,88.13388,-23.84853,-999.0,-999.0,-999.0,no,no,no,300534061788840,T_String,AWI,unknown,North
2022-08-10T04:00:11Z,2022,4,0,222.1668,222.1668,88.12952,-23.74914,-999.0,-999.0,-999.0,no,no,no,300534061788840,T_String,AWI,unknown,North
2022-08-10T06:00:17Z,2022,6,0,222.2502,222.2502,88.12541,-23.62712,-999.0,-999.0,-999.0,no,no,no,300534061788840,T_String,AWI,unknown,North
2022-08-10T08:00:14Z,2022,8,0,222.3335,222.3335,88.12096,-23.47882,-999.0,-999.0,-999.0,no,no,no,300534061788840,T_String,AWI,unknown,North
2022-08-10T10:00:11Z,2022,10,0,222.4168,222.4168,88.11611,-23.31448,-999.0,-999.0,-999.0,no,no,no,300534061788840,T_String,AWI,unknown,North
2022-08-10T12:00:17Z,2022,12,0,222.5002,222.5002,88.11107,-23.1667,-999.0,-999.0,-999.0,no,no,no,300534061788840,T_String,AWI,unknown,North
2022-08-10T14:00:14Z,2022,14,0,222.5835,222.5835,88.10641,-23.04536,-999.0,-999.0,-999.0,no,no,no,300534061788840,T_String,AWI,unknown,North
2022-08-10T16:00:11Z,2022,16,0,222.6668,222.6668,88.1024,-22.94053,-999.0,-999.0,-999.0,no,no,no,300534061788840,T_String,AWI,unknown,North
2022-08-10T18:00:17Z,2022,18,0,222.7502,222.7502,88.09911,-22.83221,-999.0,-999.0,-999.0,no,no,no,300534061788840,T_String,AWI,unknown,North
2022-08-10T20:00:14Z,2022,20,0,222.8335,222.8335,88.09601,-22.70936,-999.0,-999.0,-999.0,no,no,no,300534061788840,T_String,AWI,unknown,North
2022-08-10T22:00:11Z,2022,22,0,222.9168,222.9168,88.09261,-22.57765,-999.0,-999.0,-999.0,no,no,no,300534061788840,T_String,AWI,unknown,North
2022-08-11T00:00:17Z,2022,0,0,223.0002,223.0002,88.08886,-22.46255,-999.0,-999.0,-999.0,no,no,no,300534061788840,T_String,AWI,unknown,North
2022-08-11T02:00:14Z,2022,2,0,223.0835,223.0835,88.085,-22.36944,-999.0,-999.0,-999.0,no,no,no,300534061788840,T_String,AWI,unknown,North
2022-08-11T04:00:11Z,2022,4,0,223.1668,223.1668,88.08142,-22.28853,-999.0,-999.0,-999.0,no,no,no,300534061788840,T_String,AWI,unknown,North
2022-08-11T06:00:17Z,2022,6,0,223.2502,223.2502,88.07814,-22.19176,-999.0,-999.0,-999.0,no,no,no,300534061788840,T_String,AWI,unknown,North
2022-08-11T08:00:14Z,2022,8,0,223.3335,223.3335,88.07417,-22.04571,-999.0,-999.0,-999.0,no,no,no,300534061788840,T_String,AWI,unknown,North
2022-08-11T10:00:11Z,2022,10,0,223.4168,223.4168,88.06937,-21.87693,-999.0,-999.0,-999.0,no,no,no,300534061788840,T_String,AWI,unknown,North
2022-08-11T12:00:17Z,2022,12,0,223.5002,223.5002,88.06477,-21.72304,-999.0,-999.0,-999.0,no,no,no,300534061788840,T_String,AWI,unknown,North
2022-08-11T14:00:14Z,2022,14,0,223.5835,223.5835,88.06081,-21.59185,-999.0,-999.0,-999.0,no,no,no,300534061788840,T_String,AWI,unknown,North
2022-08-11T16:00:11Z,2022,16,0,223.6668,223.6668,88.05764,-21.47075,-999.0,-999.0,-999.0,no,no,no,300534061788840,T_String,AWI,unknown,North
2022-08-11T18:00:17Z,2022,18,0,223.7502,223.7502,88.05489,-21.34624,-999.0,-999.0,-999.0,no,no,no,300534061788840,T_String,AWI,unknown,North
2022-08-11T20:00:14Z,2022,20,0,223.8335,223.8335,88.05228,-21.22151,-999.0,-999.0,-999.0,no,no,no,300534061788840,T_String,AWI,unknown,North
2022-08-11T22:00:11Z,2022,22,0,223.9168,223.9168,88.04963,-21.09743,-999.0,-999.0,-999.0,no,no,no,300534061788840,T_String,AWI,unknown,North
2022-08-12T00:00:17Z,2022,0,0,224.0002,224.0002,88.04699,-20.97951,-999.0,-999.0,-999.0,no,no,no,300534061788840,T_String,AWI,unknown,North
2022-08-12T02:00:14Z,2022,2,0,224.0835,224.0835,88.04418,-20.88472,-999.0,-999.0,-999.0,no,no,no,300534061788840,T_String,AWI,unknown,North
2022-08-12T04:00:11Z,2022,4,0,224.1668,224.1668,88.0422,-20.81042,-999.0,-999.0,-999.0,no,no,no,300534061788840,T_String,AWI,unknown,North
2022-08-12T06:00:17Z,2022,6,0,224.2502,224.2502,88.04089,-20.73216,-999.0,-999.0,-999.0,no,no,no,300534061788840,T_String,AWI,unknown,North
2022-08-12T08:00:14Z,2022,8,0,224.3335,224.3335,88.03964,-20.61176,-999.0,-999.0,-999.0,no,no,no,300534061788840,T_String,AWI,unknown,North
2022-08-12T10:00:11Z,2022,10,0,224.4168,224.4168,88.03782,-20.47025,-999.0,-999.0,-999.0,no,no,no,300534061788840,T_String,AWI,unknown,North
2022-08-12T12:00:17Z,2022,12,0,224.5002,224.5002,88.03577,-20.3541,-999.0,-999.0,-999.0,no,no,no,300534061788840,T_String,AWI,unknown,North
2022-08-12T14:00:14Z,2022,14,0,224.5835,224.5835,88.03508,-20.25738,-999.0,-999.0,-999.0,no,no,no,300534061788840,T_String,AWI,unknown,North
2022-08-12T16:00:11Z,2022,16,0,224.6668,224.6668,88.03593,-20.17604,-999.0,-999.0,-999.0,no,no,no,300534061788840,T_String,AWI,unknown,North
2022-08-12T18:00:17Z,2022,18,0,224.7502,224.7502,88.03771,-20.08582,-999.0,-999.0,-999.0,no,no,no,300534061788840,T_String,AWI,unknown,North
2022-08-12T20:00:14Z,2022,20,0,224.8335,224.8335,88.03916,-19.97615,-999.0,-999.0,-999.0,no,no,no,300534061788840,T_String,AWI,unknown,North
2022-08-12T22:00:11Z,2022,22,0,224.9168,224.9168,88.0399,-19.85493,-999.0,-999.0,-999.0,no,no,no,300534061788840,T_String,AWI,unknown,North
2022-08-13T00:00:17Z,2022,0,0,225.0002,225.0002,88.03982,-19.72384,-999.0,-999.0,-999.0,no,no,no,300534061788840,T_String,AWI,unknown,North
2022-08-13T02:00:14Z,2022,2,0,225.0835,225.0835,88.03974,-19.6022,-999.0,-999.0,-999.0,no,no,no,300534061788840,T_String,AWI,unknown,North
2022-08-13T04:00:11Z,2022,4,0,225.1668,225.1668,88.04053,-19.48434,-999.0,-999.0,-999.0,no,no,no,300534061788840,T_String,AWI,unknown,North
2022-08-13T06:00:17Z,2022,6,0,225.2502,225.2502,88.04031,-19.37041,-999.0,-999.0,-999.0,no,no,no,300534061788840,T_String,AWI,unknown,North
2022-08-13T08:00:14Z,2022,8,0,225.3335,225.3335,88.03922,-19.26459,-999.0,-999.0,-999.0,no,no,no,300534061788840,T_String,AWI,unknown,North
2022-08-13T10:00:11Z,2022,10,0,225.4168,225.4168,88.03717,-19.16218,-999.0,-999.0,-999.0,no,no,no,300534061788840,T_String,AWI,unknown,North
2022-08-13T12:00:17Z,2022,12,0,225.5002,225.5002,88.0345,-19.07418,-999.0,-999.0,-999.0,no,no,no,300534061788840,T_String,AWI,unknown,North
2022-08-13T14:00:14Z,2022,14,0,225.5835,225.5835,88.03203,-18.99419,-999.0,-999.0,-999.0,no,no,no,300534061788840,T_String,AWI,unknown,North
2022-08-13T16:00:11Z,2022,16,0,225.6668,225.6668,88.03042,-18.93774,-999.0,-999.0,-999.0,no,no,no,300534061788840,T_String,AWI,unknown,North
2022-08-13T18:00:17Z,2022,18,0,225.7502,225.7502,88.02991,-18.88223,-999.0,-999.0,-999.0,no,no,no,300534061788840,T_String,AWI,unknown,North
2022-08-13T20:00:14Z,2022,20,0,225.8335,225.8335,88.02918,-18.80897,-999.0,-999.0,-999.0,no,no,no,300534061788840,T_String,AWI,unknown,North
2022-08-13T22:00:11Z,2022,22,0,225.9168,225.9168,88.02762,-18.71658,-999.0,-999.0,-999.0,no,no,no,300534061788840,T_String,AWI,unknown,North
2022-08-14T00:00:17Z,2022,0,0,226.0002,226.0002,88.02567,-18.62314,-999.0,-999.0,-999.0,no,no,no,300534061788840,T_String,AWI,unknown,North
2022-08-14T02:00:14Z,2022,2,0,226.0835,226.0835,88.02365,-18.55885,-999.0,-999.0,-999.0,no,no,no,300534061788840,T_String,AWI,unknown,North
2022-08-14T04:00:11Z,2022,4,0,226.1668,226.1668,88.02285,-18.50434,-999.0,-999.0,-999.0,no,no,no,300534061788840,T_String,AWI,unknown,North
2022-08-14T06:00:17Z,2022,6,0,226.2502,226.2502,88.02263,-18.444,-999.0,-999.0,-999.0,no,no,no,300534061788840,T_String,AWI,unknown,North
2022-08-14T08:00:14Z,2022,8,0,226.3335,226.3335,88.0222,-18.36519,-999.0,-999.0,-999.0,no,no,no,300534061788840,T_String,AWI,unknown,North
2022-08-14T10:00:11Z,2022,10,0,226.4168,226.4168,88.02116,-18.27425,-999.0,-999.0,-999.0,no,no,no,300534061788840,T_String,AWI,unknown,North
2022-08-14T12:00:17Z,2022,12,0,226.5002,226.5002,88.01975,-18.20559,-999.0,-999.0,-999.0,no,no,no,300534061788840,T_String,AWI,unknown,North
2022-08-14T14:00:14Z,2022,14,0,226.5835,226.5835,88.01926,-18.16156,-999.0,-999.0,-999.0,no,no,no,300534061788840,T_String,AWI,unknown,North
2022-08-14T16:00:11Z,2022,16,0,226.6668,226.6668,88.01978,-18.1141,-999.0,-999.0,-999.0,no,no,no,300534061788840,T_String,AWI,unknown,North
2022-08-14T18:00:17Z,2022,18,0,226.7502,226.7502,88.02114,-18.05729,-999.0,-999.0,-999.0,no,no,no,300534061788840,T_String,AWI,unknown,North
2022-08-14T20:00:14Z,2022,20,0,226.8335,226.8335,88.02321,-17.9854,-999.0,-999.0,-999.0,no,no,no,300534061788840,T_String,AWI,unknown,North
2022-08-14T22:00:11Z,2022,22,0,226.9168,226.9168,88.02522,-17.91587,-999.0,-999.0,-999.0,no,no,no,300534061788840,T_String,AWI,unknown,North